Change the Weather History Date:

Wednesday, January 22, 2014

  Actual Average Record
Temperature  
Mean Temperature 24 °F -  
Max Temperature 32 °F 34 °F 44 °F (1998)
Min Temperature 15 °F 14 °F -2 °F (2008)
Degree Days  
Heating Degree Days 42    
Moisture  
Dew Point 19 °F    
Average Humidity 83    
Maximum Humidity 100    
Minimum Humidity 64    
Precipitation  
Precipitation 0.00 in - - ()
Sea Level Pressure  
Sea Level Pressure 30.20 in    
Wind  
Wind Speed 7 mph (NW)    
Max Wind Speed 10 mph    
Max Gust Speed -    
Visibility 10 miles    
Events      
Averages and records for this station are not official NWS values.
T = Trace of Precipitation, MM = Missing Value Source: NWS Daily Summary

Daily Weather History Graph

Daily Weather History Graph

Search for Another Location

Airport or City:

Trip Planner

Search our weather history database for the weather conditions in past years. The results will help you decide how hot, cold, wet, or windy it might be!

Date:

Astronomy

Jan. 22, 2014 Rise Set
Actual Time 8:02 AM MST 5:35 PM MST
Civil Twilight 7:31 AM MST 6:06 PM MST
Nautical Twilight 6:56 AM MST 6:41 PM MST
Astronomical Twilight 6:22 AM MST 7:15 PM MST
Moon No Moon Rise 10:53 AM MST (1/22)
Length of Visible Light 10h 35m
Length of Day
9h 32m
Waning Gibbous, 65% of the Moon is Illuminated
Jan 22
Waning Gibbous
Jan 23
Last Quarter
Jan 30
New
Feb 6
First Quarter
Feb 14
Full

Hourly Weather History & Observations

Time (MST) Temp. Windchill Dew Point Humidity Pressure Visibility Wind Dir Wind Speed Gust Speed Precip Events Conditions
12:15 AM 26.6 °F 17.5 °F 19.4 °F 74% 30.28 in 10.0 mi NW 9.2 mph - N/A   Clear
12:35 AM 26.6 °F 16.8 °F 19.4 °F 74% 30.27 in 10.0 mi NW 10.4 mph - N/A   Clear
12:55 AM 24.8 °F 16.1 °F 19.4 °F 80% 30.27 in 10.0 mi NW 8.1 mph - N/A   Clear
1:15 AM 23.0 °F 13.9 °F 19.4 °F 86% 30.26 in 10.0 mi NW 8.1 mph - N/A   Clear
1:35 AM 24.8 °F 15.3 °F 19.4 °F 80% 30.26 in 10.0 mi NW 9.2 mph - N/A   Clear
1:55 AM 24.8 °F 17.9 °F 19.4 °F 80% 30.25 in 10.0 mi NW 5.8 mph - N/A   Clear
2:15 AM 23.0 °F 14.7 °F 17.6 °F 80% 30.25 in 10.0 mi NW 6.9 mph - N/A   Clear
2:55 AM 21.2 °F 12.6 °F 17.6 °F 86% 30.24 in 10.0 mi NW 6.9 mph - N/A   Clear
3:15 AM 23.0 °F 13.9 °F 17.6 °F 80% 30.24 in 10.0 mi NNW 8.1 mph - N/A   Clear
3:35 AM 21.2 °F 12.6 °F 17.6 °F 86% 30.24 in 10.0 mi NW 6.9 mph - N/A   Clear
3:55 AM 21.2 °F 11.7 °F 17.6 °F 86% 30.24 in 10.0 mi NW 8.1 mph - N/A   Clear
4:15 AM 21.2 °F 10.9 °F 15.8 °F 80% 30.22 in 10.0 mi NW 9.2 mph - N/A   Clear
4:35 AM 21.2 °F 10.9 °F 15.8 °F 80% 30.21 in 10.0 mi NW 9.2 mph - N/A   Clear
4:55 AM 19.4 °F 11.5 °F 15.8 °F 86% 30.21 in 10.0 mi NW 5.8 mph - N/A   Clear
5:15 AM 19.4 °F 7.9 °F 15.8 °F 86% 30.21 in 10.0 mi NW 10.4 mph - N/A   Clear
5:35 AM 19.4 °F 9.5 °F 14.0 °F 80% 30.21 in 10.0 mi NW 8.1 mph - N/A   Clear
5:55 AM 19.4 °F 10.4 °F 14.0 °F 80% 30.19 in 10.0 mi NNW 6.9 mph - N/A   Clear
6:47 AM 15.8 °F 6.1 °F 12.2 °F 86% 30.19 in 10.0 mi WNW 6.9 mph - N/A   Partly Cloudy
7:47 AM 15.8 °F 7.2 °F 12.2 °F 86% 30.19 in 10.0 mi WNW 5.8 mph - N/A   Partly Cloudy
8:47 AM 15.8 °F 6.1 °F 12.2 °F 86% 30.17 in 10.0 mi WNW 6.9 mph - N/A   Partly Cloudy
9:47 AM 21.2 °F 13.6 °F 15.8 °F 80% 30.16 in 10.0 mi West 5.8 mph - N/A   Partly Cloudy
10:47 AM 24.8 °F - 17.6 °F 74% 30.16 in 10.0 mi Calm Calm - N/A   Partly Cloudy
11:47 AM 32.0 °F - 21.2 °F 64% 30.12 in 10.0 mi Calm Calm - N/A   Partly Cloudy
12:47 PM 32.0 °F 24.8 °F 23.0 °F 69% 30.09 in 10.0 mi ESE 8.1 mph - N/A   Mostly Cloudy
1:50 PM 32.0 °F 23.6 °F 24.8 °F 75% 30.08 in 10.0 mi SE 10.4 mph - N/A   Mostly Cloudy
2:47 PM 32.0 °F 23.6 °F 24.8 °F 75% 30.08 in 10.0 mi SE 10.4 mph - N/A   Scattered Clouds
3:50 PM 32.0 °F 24.2 °F 24.8 °F 75% 30.10 in 10.0 mi SE 9.2 mph - N/A   Mostly Cloudy
4:55 PM 30.2 °F 22.6 °F 24.8 °F 80% 30.13 in 10.0 mi SE 8.1 mph - N/A   Mostly Cloudy
5:47 PM 28.4 °F 23.3 °F 24.8 °F 86% 30.14 in 10.0 mi SE 4.6 mph - N/A   Scattered Clouds
6:47 PM 26.6 °F 20.0 °F 21.2 °F 80% 30.14 in 10.0 mi NNW 5.8 mph - N/A   Scattered Clouds
7:55 PM 24.8 °F - 21.2 °F 86% 30.17 in 10.0 mi Calm Calm - N/A   Scattered Clouds
8:55 PM 21.2 °F - 19.4 °F 93% 30.17 in 10.0 mi Calm Calm - N/A   Scattered Clouds
9:47 PM 21.2 °F 12.6 °F 19.4 °F 93% 30.19 in 10.0 mi NW 6.9 mph - N/A   Scattered Clouds
10:15 PM 23.0 °F 13.9 °F 21.2 °F 93% 30.20 in 7.0 mi NW 8.1 mph - N/A   Clear
10:35 PM 23.0 °F 13.1 °F 19.4 °F 86% 30.20 in 10.0 mi NW 9.2 mph - N/A   Clear
10:47 PM 19.4 °F 10.4 °F 17.6 °F 93% 30.21 in 10.0 mi WNW 6.9 mph - N/A   Scattered Clouds
10:55 PM 23.0 °F 14.7 °F 19.4 °F 86% 30.21 in 10.0 mi NNW 6.9 mph - N/A   Clear
11:15 PM 19.4 °F - 19.4 °F 100% 30.22 in 7.0 mi Calm Calm - N/A   Clear
11:35 PM 21.2 °F 16.4 °F 19.4 °F 93% 30.22 in 10.0 mi NNE 3.5 mph - N/A   Clear
11:55 PM 21.2 °F 13.6 °F 19.4 °F 93% 30.23 in 10.0 mi North 5.8 mph - N/A   Clear